Regional Weather Roundup
Issued by NWS Lake Charles, LA

Home | Current Version | Previous Version | Text Only | Print | Product List | Glossary On
Versions: 1 2 3 4 5 6 7 8 9 10 11 12 13 14 15 16 17 18 19 20 21 22 23 24 25 26 27 28 29 30 31 32 33 34 35 36 37 38 39 40 41 42 43 44 45 46 47 48 49 50
934
ASUS44 KLCH 250410
RWRLCH
REGIONAL WEATHER ROUNDUP
NATIONAL WEATHER SERVICE LAKE CHARLES LA
1000 PM CST FRI NOV 24 2017

Note: "fair" indicates few or no clouds below 12,000 feet with no
significant weather and/or obstructions to visibility.


ACROSS SOUTHEAST TEXAS

CITY           SKY/WX    TMP DP  RH WIND       PRES   REMARKS
BEAUMONT       CLEAR     49  46  90 S5        29.95S
BEAUMONT CITY  FAIR      53  46  77 CALM      29.96S
ORANGE         CLEAR     46  46  99 CALM      29.97S
JASPER         PTCLDY    48  46  90 CALM      29.98R
$$

ACROSS CENTRAL LOUISIANA

CITY           SKY/WX    TMP DP  RH WIND       PRES   REMARKS
LEESVILLE      CLEAR     50  41  70 S6        29.94F
FULLERTON      FAIR      44  40  85 CALM      29.93F
ALEXANDRIA INT CLEAR     48  38  68 SE5       29.95S
ESLER FIELD    CLEAR     40  39  97 CALM      29.96S
DERIDDER       FAIR      49  40  70 CALM      29.98S
OAKDALE        CLEAR     38  37  94 CALM      29.97S
OPELOUSAS      FAIR      46  39  78 S3        29.98S
$$

ACROSS SOUTHWEST AND SOUTH CENTRAL LOUISIANA

CITY           SKY/WX    TMP DP  RH WIND       PRES   REMARKS
SULPHUR        CLEAR     48  45  88 CALM      29.97F
LAKE CHARLES   CLEAR     47  43  86 SE3       29.96F
CHENNAULT INT  CLEAR     43  39  87 E8        29.97F
CAMERON PHI    CLEAR     59  52  77 S5        29.97F
DEQUINCY       FAIR      44  41  90 CALM      29.96F
JENNINGS       FAIR      49  43  78 SE3       29.98F
LAFAYETTE      CLEAR     46  44  93 CALM      29.99S
NEW IBERIA     CLEAR     41  35  79 CALM      30.00R
ABBEVILLE      FAIR      39  39 100 CALM      30.00S
PATTERSON      CLEAR     41  40  96 CALM      30.01R
SALT POINT       N/A      1  32 100 CALM      29.99R
$$

SELECTED SITES ACROSS THE REGION

CITY           SKY/WX    TMP DP  RH WIND       PRES   REMARKS
HOUSTON BUSH   PTCLDY    54  47  77 S5        29.93S
HOUSTON HOBBY  CLOUDY    55  48  77 S6        29.93S
GALVESTON      CLOUDY    64  50  60 S7        29.94F
COLLEGE STAT   CLEAR     59  44  57 S9        29.90R
CONROE         CLEAR     49  47  93 CALM      29.93R
HUNTSVILLE     CLEAR     57  45  64 S6        29.91R
LUFKIN         CLEAR     49  43  80 SE5       29.92S
SHREVEPORT     PTCLDY    52  43  71 S6        29.92R
MONROE         CLEAR     50  35  56 CALM      29.97R
NATCHEZ MS     CLEAR     41  38  89 S6        29.97F
BATON ROUGE    CLEAR     45  39  79 CALM      29.99S
N.O. INTL ARPT PTCLDY    48  41  76 SW3       30.00S
SLIDELL        CLEAR     40  36  86 CALM      30.00R
$$

MARINE REPORTS

STATION/POSITION TIME  SKY/WX   TEMP    WIND        PRES    VSBY
                                AIR SEA DIR/SP/G
                 (UTC)          (F)     (DEG/KT/KT) (MB)    (MI)
BUOY 30 S HIGH I 0250            67 69  200/ 10/ 12 1014.3
WVE H/P(F/S)=  1/ 7

SEA RIM ST PARK  0400            64     190/  7/  8 1014.5F
PORT ARTHUR      0348            59 63  160/  3/  5 1014.2F
SABINE PASS N    0348            62 63  180/  5/  6 1015.8F
TEXAS POINT      NOT AVBL
CALCASIEU PASS   0348            63 63  200/  5/  6 1013.5F
LK CHARLES BEACH 0348            52 66              1014.1F
MARSH ISLAND     0300            58                   N/A
FRESH WATER LOCK 0348            53 63   60/  2/  2 1015.6R
AMERADA PASS     0348            53 58     CALM     1015.6R
$$




USA.gov is the U.S. government's official web portal to all federal, state and local government web resources and services.